KEYWMUHA

Guest
Details From KEYW - Key West Intl
To MUHA - Havana Jose Marti Intl
Flight Number -
Tags generated
Created
Modified
Stats Distance 101 nm / 187 km
Max Altitude 500 ft / 152 m
Waypoints 3
Social Downloads 0
Likes 0
Share VATSIM

Download

Looking for another format? Having issues loading an existing format? Contact us
Advertisement - Login to hide

Notes

Basic altitude profile: - Ascent Rate: 2500ft/min - Ascent Speed: 250kts - Cruise Altitude: 12000ft - Cruise Speed: 420kts - Descent Rate: 1500ft/min - Descent Speed: 250kts Options: - Use NATs: yes - Use PACOTS: yes - Use low airways: yes - Use high airways: yes

Route

KEYW FIS MUHA

ID Type Via Altitude Latitude Longitude Leg Dist Tot Dist Heading (true) Name
O KEYW APT - 0 ft / 0 m 24.55612˚ -81.75955˚ - 0 nm - Key West Intl
FIS NDB - 500 ft / 152 m 24.54833˚ -81.78639˚ 1 nm 1 nm 252° / 252° FISH HOOK NDB
O MUHA APT - 0 ft / 0 m 22.98915˚ -82.40909˚ 99 nm 101 nm 200° / 200° Havana Jose Marti Intl

Altitude Profile

Advertisement - Login to hide

KEYW

Details ICAO KEYW (EYW)
Name Key West Intl
Region United States
Timezone America/New_York (UTC-4.0)
Stats Elevation 2 ft / 1 m (AMSL)
Location 24.556124° -81.759546°
Runways 1
Magnetic Variation 5.594° W

METAR

KEYW 260007Z 14027G34KT 9SM -RA SCT014 BKN060 OVC080 25/24 A2993 RMK AO2 PK WND 14034/0006 P0003 T02500244

Decode

TAF

TAF AMD KEYW 260012Z 2600/2624 12015KT P6SM VCSH SCT015 BKN060 OVC080 TEMPO 2600/2604 11018G25KT 4SM SHRA BKN015 OVC060 FM260600 13016G25KT 5SM -RA BR VCTS SCT015CB TEMPO 2606/2610 2SM -TSRA BKN015CB FM261000 13017G26KT 5SM -RA VCTS SCT015CB TEMPO 2610/2614 1SM -TSRA BKN015CB FM261400 13011G20KT 5SM -RA VCTS OVC015CB PROB30 2614/2620 2SM -TSRA BKN025CB

Decode

Departure Runways

ID Width Length Bearing (true) Bearing (mag) Surface Threshold Offset Overrun Length
09 100 ft / 30 m 4,794 ft / 1,461 m 89.38° 94.97° Asphalt 151 ft / 46 m 0 ft / 0 m
27 100 ft / 30 m 4,794 ft / 1,461 m 269.39° 274.98° Asphalt 151 ft / 46 m 0 ft / 0 m

MUHA

Details ICAO MUHA (HAV)
Name Havana Jose Marti Intl
Region Cuba
Timezone America/Havana (UTC-4.0)
Stats Elevation 209 ft / 64 m (AMSL)
Location 22.989154° -82.409086°
Runways 1
Magnetic Variation 4.960° W

METAR

MUHA 252355Z 08005KT 8000 -RA FEW020 OVC050 23/22 Q1012

Decode

TAF

Not found

Destination Runways

ID Width Length Bearing (true) Bearing (mag) Surface Threshold Offset Overrun Length
06 148 ft / 45 m 13,133 ft / 4,003 m 54.21° 59.17° Asphalt 0 ft / 0 m 476 ft / 145 m
24 148 ft / 45 m 13,133 ft / 4,003 m 234.23° 239.19° Asphalt 0 ft / 0 m 197 ft / 60 m

Approach Navaids

Runway Type Ident Frequency Range Bearing (true) Bearing (mag) Slope Elevation
06 Localiser IHA 110.50 MHz 18 nm / 33 km 54.23° 59.19° - 209 ft / 64 m (AMSL)
06 Glidescope IHA 110.50 MHz 10 nm / 19 km 54.22° 59.18° 3.00° 209 ft / 64 m (AMSL)

Popular Alternatives